When you browse on this site, cookies collect data to enhance your experience and personalize the content and advertising you see.
Visit our Privacy Policy to learn more. By continuing to use the site, you agree to this use of cookies and data.
  • In Czech Republic
  • List of Countries
  • For 7 days
  • Water Temperature
  • Satellite Maps
  • Weather Map
  • Weather Widgets
  • user-avatar
    Login

    Hourly Weather Alboraya

    Today, 19 January, Saturday

    Time Temperature Precipitation Wind Pressure Humidity
    00:00 +6°C° 0 mm 4 mps 762 mmHg 47%
    01:00 +7°C° 0 mm 3 mps 762 mmHg 47%
    02:00 +5°C° 0 mm 3 mps 762 mmHg 47%
    03:00 +5°C° 0 mm 3 mps 762 mmHg 47%
    04:00 +5°C° 0 mm 3 mps 762 mmHg 49%
    05:00 +4°C° 0 mm 3 mps 762 mmHg 51%
    06:00 +4°C° 0 mm 4 mps 762 mmHg 51%
    07:00 +5°C° 0 mm 4 mps 762 mmHg 51%
    08:00 +6°C° 0 mm 4 mps 762 mmHg 51%
    09:00 +8°C° 0 mm 3 mps 762 mmHg 50%
    10:00 +10°C° 0 mm 3 mps 761 mmHg 46%
    11:00 +13°C° 0 mm 3 mps 761 mmHg 42%
    12:00 +14°C° 0 mm 3 mps 761 mmHg 38%
    13:00 +16°C° 0 mm 3 mps 760 mmHg 37%
    14:00 +16°C° 0 mm 3 mps 760 mmHg 37%
    15:00 +16°C° 0 mm 3 mps 759 mmHg 36%
    16:00 +14°C° 0 mm 3 mps 759 mmHg 41%
    17:00 +12°C° 0 mm 3 mps 759 mmHg 46%
    18:00 +11°C° 0 mm 4 mps 759 mmHg 50%
    19:00 +10°C° 0.4 mm 3 mps 759 mmHg 59%
    20:00 +10°C° 0.4 mm 3 mps 758 mmHg 67%
    21:00 +10°C° 0.4 mm 3 mps 758 mmHg 75%
    22:00 +9°C° 0.7 mm 3 mps 758 mmHg 76%
    23:00 +9°C° 0.7 mm 3 mps 757 mmHg 77%

    Tomorrow, 20 January, Sunday

    Time Temperature Precipitation Wind Pressure Humidity
    00:00 +9°C° 0.7 mm 2 mps 757 mmHg 78%
    01:00 +9°C° 0 mm 3 mps 756 mmHg 79%
    02:00 +9°C° 0 mm 3 mps 755 mmHg 80%
    03:00 +9°C° 0 mm 3 mps 755 mmHg 81%
    04:00 +9°C° 0 mm 3 mps 755 mmHg 82%
    05:00 +9°C° 0 mm 3 mps 754 mmHg 83%
    06:00 +10°C° 0 mm 4 mps 754 mmHg 83%
    07:00 +10°C° 0.2 mm 3 mps 755 mmHg 82%
    08:00 +11°C° 0.2 mm 3 mps 755 mmHg 81%
    09:00 +11°C° 0.2 mm 3 mps 755 mmHg 81%
    10:00 +12°C° 0.2 mm 3 mps 755 mmHg 74%
    11:00 +12°C° 0.2 mm 3 mps 756 mmHg 68%
    12:00 +13°C° 0.2 mm 3 mps 756 mmHg 62%
    13:00 +13°C° 0 mm 3 mps 756 mmHg 58%
    14:00 +14°C° 0 mm 3 mps 756 mmHg 54%
    15:00 +14°C° 0 mm 3 mps 756 mmHg 50%
    16:00 +13°C° 0.1 mm 3 mps 757 mmHg 54%
    17:00 +12°C° 0.1 mm 3 mps 757 mmHg 59%
    18:00 +11°C° 0.1 mm 3 mps 758 mmHg 63%
    19:00 +11°C° 0.1 mm 3 mps 759 mmHg 64%
    20:00 +10°C° 0.1 mm 3 mps 759 mmHg 64%
    21:00 +10°C° 0.1 mm 4 mps 760 mmHg 65%
    22:00 +8°C° 0 mm 4 mps 760 mmHg 66%
    23:00 +7°C° 0 mm 4 mps 761 mmHg 68%

    Day after tomorrow, 21 January, Monday

    Time Temperature Precipitation Wind Pressure Humidity
    00:00 +6°C° 0 mm 4 mps 761 mmHg 69%
    01:00 +6°C° 0 mm 4 mps 762 mmHg 70%
    02:00 +5°C° 0 mm 4 mps 762 mmHg 70%
    03:00 +5°C° 0 mm 4 mps 762 mmHg 71%
    04:00 +5°C° 0 mm 3 mps 762 mmHg 71%
    05:00 +5°C° 0 mm 3 mps 762 mmHg 72%
    06:00 +5°C° 0 mm 3 mps 762 mmHg 72%
    07:00 +7°C° 0 mm 3 mps 763 mmHg 69%
    08:00 +8°C° 0 mm 3 mps 763 mmHg 65%
    09:00 +9°C° 0 mm 3 mps 763 mmHg 62%
    10:00 +11°C° 0 mm 3 mps 763 mmHg 54%
    11:00 +12°C° 0 mm 3 mps 763 mmHg 46%
    12:00 +14°C° 0 mm 3 mps 763 mmHg 38%
    13:00 +14°C° 0 mm 3 mps 763 mmHg 39%
    14:00 +14°C° 0 mm 3 mps 762 mmHg 40%
    15:00 +13°C° 0 mm 3 mps 762 mmHg 40%
    16:00 +12°C° 0 mm 3 mps 763 mmHg 44%
    17:00 +11°C° 0 mm 3 mps 763 mmHg 48%
    18:00 +9°C° 0 mm 3 mps 763 mmHg 52%
    19:00 +9°C° 0 mm 3 mps 764 mmHg 53%
    20:00 +7°C° 0 mm 4 mps 764 mmHg 54%
    21:00 +6°C° 0 mm 4 mps 764 mmHg 55%
    22:00 +6°C° 0 mm 4 mps 764 mmHg 57%
    23:00 +5°C° 0 mm 4 mps 765 mmHg 59%

    22 January, Tuesday

    Time Temperature Precipitation Wind Pressure Humidity
    00:00 +4°C° 0 mm 4 mps 765 mmHg 61%
    01:00 +4°C° 0 mm 4 mps 764 mmHg 63%
    02:00 +3°C° 0 mm 4 mps 764 mmHg 64%
    03:00 +3°C° 0 mm 4 mps 763 mmHg 65%
    04:00 +3°C° 0 mm 4 mps 763 mmHg 63%
    05:00 +1°C° 0 mm 4 mps 763 mmHg 62%
    06:00 +1°C° 0 mm 4 mps 762 mmHg 60%
    07:00 +4°C° 0 mm 4 mps 762 mmHg 57%
    08:00 +5°C° 0 mm 5 mps 762 mmHg 54%
    09:00 +7°C° 0 mm 5 mps 761 mmHg 52%
    10:00 +9°C° 0 mm 6 mps 760 mmHg 47%
    11:00 +11°C° 0 mm 7 mps 760 mmHg 43%
    12:00 +13°C° 0 mm 8 mps 759 mmHg 39%
    13:00 +14°C° 0.1 mm 7 mps 758 mmHg 42%
    14:00 +14°C° 0.1 mm 6 mps 757 mmHg 44%
    15:00 +13°C° 0.1 mm 5 mps 756 mmHg 47%
    16:00 +12°C° 0.1 mm 4 mps 756 mmHg 50%
    17:00 +11°C° 0.1 mm 3 mps 756 mmHg 53%
    18:00 +10°C° 0.1 mm 2 mps 756 mmHg 55%
    19:00 +10°C° 0 mm 3 mps 756 mmHg 57%
    20:00 +8°C° 0 mm 4 mps 756 mmHg 58%
    21:00 +7°C° 0 mm 4 mps 757 mmHg 60%
    22:00 +7°C° 0 mm 5 mps 756 mmHg 59%
    23:00 +7°C° 0 mm 6 mps 756 mmHg 58%

    23 January, Wednesday

    Time Temperature Precipitation Wind Pressure Humidity
    00:00 +5°C° 0 mm 7 mps 756 mmHg 57%
    01:00 +5°C° 0 mm 7 mps 755 mmHg 56%
    02:00 +5°C° 0 mm 7 mps 755 mmHg 56%
    03:00 +5°C° 0 mm 7 mps 755 mmHg 56%
    04:00 +5°C° 0 mm 7 mps 754 mmHg 54%
    05:00 +5°C° 0 mm 7 mps 754 mmHg 53%
    06:00 +5°C° 0 mm 7 mps 754 mmHg 52%
    07:00 +6°C° 0.1 mm 7 mps 753 mmHg 52%
    08:00 +7°C° 0.1 mm 8 mps 753 mmHg 52%
    09:00 +7°C° 0.1 mm 8 mps 753 mmHg 52%
    10:00 +8°C° 0.6 mm 7 mps 752 mmHg 56%
    11:00 +9°C° 0.6 mm 6 mps 752 mmHg 60%
    12:00 +9°C° 0.6 mm 5 mps 752 mmHg 64%
    13:00 +9°C° 0.2 mm 5 mps 751 mmHg 59%
    14:00 +10°C° 0.2 mm 5 mps 751 mmHg 54%
    15:00 +10°C° 0.2 mm 6 mps 751 mmHg 49%
    16:00 +9°C° 0 mm 6 mps 752 mmHg 51%
    17:00 +6°C° 0 mm 7 mps 752 mmHg 53%
    18:00 +5°C° 0 mm 7 mps 753 mmHg 56%
    19:00 +4°C° 0 mm 8 mps 754 mmHg 55%
    20:00 +2°C° 0 mm 8 mps 754 mmHg 55%
    21:00 +2°C° 0 mm 8 mps 755 mmHg 55%
    22:00 +1°C° 0 mm 9 mps 755 mmHg 52%
    23:00 +1°C° 0 mm 10 mps 755 mmHg 49%

    24 January, Thursday

    Time Temperature Precipitation Wind Pressure Humidity
    00:00 +1°C° 0 mm 11 mps 755 mmHg 46%
    01:00 +1°C° 0 mm 11 mps 755 mmHg 45%
    02:00 +1°C° 0 mm 11 mps 755 mmHg 43%
    03:00 +2°C° 0 mm 11 mps 755 mmHg 42%
    04:00 +2°C° 0 mm 11 mps 755 mmHg 44%
    05:00 +2°C° 0 mm 10 mps 755 mmHg 45%
    06:00 +2°C° 0 mm 9 mps 755 mmHg 47%
    07:00 +4°C° 0 mm 8 mps 755 mmHg 47%
    08:00 +5°C° 0 mm 8 mps 755 mmHg 46%
    09:00 +6°C° 0 mm 7 mps 755 mmHg 45%
    10:00 +7°C° 0 mm 8 mps 755 mmHg 41%
    11:00 +10°C° 0 mm 8 mps 754 mmHg 38%
    12:00 +12°C° 0 mm 9 mps 754 mmHg 34%
    13:00 +12°C° 0 mm 8 mps 754 mmHg 33%
    14:00 +12°C° 0 mm 8 mps 753 mmHg 33%
    15:00 +12°C° 0 mm 7 mps 753 mmHg 32%
    16:00 +10°C° 0 mm 5 mps 753 mmHg 37%
    17:00 +8°C° 0 mm 4 mps 753 mmHg 42%
    18:00 +7°C° 0 mm 2 mps 753 mmHg 47%
    19:00 +5°C° 0 mm 3 mps 754 mmHg 49%
    20:00 +4°C° 0 mm 3 mps 754 mmHg 51%
    21:00 +4°C° 0 mm 3 mps 755 mmHg 52%
    22:00 +3°C° 0 mm 3 mps 755 mmHg 51%
    23:00 +3°C° 0 mm 3 mps 755 mmHg 49%
    Show more